Regional Weather Roundup
Issued by NWS Glasgow, MT

Home | Current Version | Previous Version | Text Only | Print | Product List | Glossary On
Versions: 1 2 3 4 5 6 7 8 9 10 11 12 13 14 15 16 17 18 19 20 21 22 23 24 25 26 27 28 29 30 31 32 33 34 35 36 37 38 39 40 41 42 43 44 45 46 47 48 49 50
000
ASUS45 KGGW 070815
RWRGGW
HOURLY REGIONAL WEATHER ROUNDUP FOR NORTHEAST MONTANA
NATIONAL WEATHER SERVICE GLASGOW MONTANA
200 AM MDT TUE JUL 07 2015

NOTE: "FAIR" INDICATES FEW OR NO CLOUDS BELOW 12,000 FEET WITH NO
SIGNIFICANT WEATHER AND/OR OBSTRUCTIONS TO VISISBILITY.

NORTHEAST MONTANA


CITY           SKY/WX    TMP DP  RH WIND       PRES   REMARKS
GLASGOW        CLEAR     55  47  74 E12       30.09F
PLENTYWOOD       N/A     52  44  74 E3          N/A
WOLF POINT     CLOUDY    56  50  80 NE5       30.12F HAZE
JORDAN           N/A     57  46  66 E6        30.10F
WINNETT          N/A     53  45  74 S2          N/A
SIDNEY         PTCLDY    57  50  77 CALM      30.16F
GLENDIVE       MOCLDY    57  50  77 S6        30.16S
MALTA            N/A     63  46  54 SE9         N/A
SCOBEY           N/A     53  43  68 CALM      30.11F

FORT PECK REPORTS


CITY           SKY/WX    TMP DP  RH WIND       PRES   REMARKS
FORT PECK        N/A     62  51  67 SE15        N/A
THE PINES        N/A     62  48  60 SE3         N/A

SOUTHEAST MONTANA


CITY           SKY/WX    TMP DP  RH WIND       PRES   REMARKS
BILLINGS       CLEAR     59  51  75 CALM      30.11F
MILES CITY     CLEAR     57  49  74 S6        30.11F
BAKER          MOCLDY    55  51  86 SE12      30.18F
LIVINGSTON     CLEAR     52  46  80 VRB5      30.14F

CENTRAL MONTANA


CITY           SKY/WX    TMP DP  RH WIND       PRES   REMARKS
HAVRE          CLEAR     58  51  78 E3        30.04F
LEWISTOWN      CLEAR     52  47  83 S7        30.10F
GREAT FALLS    PTCLDY    54  50  86 CALM      30.08F
CUT BANK       CLEAR     54  47  77 SE7       30.08F
HELENA         CLEAR     59  50  72 CALM      30.09S
BUTTE          CLEAR     52  36  54 SE7       30.19S
BOZEMAN        CLEAR     60  49  66 SW5       30.12S

WESTERN MONTANA


CITY           SKY/WX    TMP DP  RH WIND       PRES   REMARKS
MISSOULA       MOCLDY    57  35  43 S5        30.06R
KALISPELL      NOT AVBL

NORTH DAKOTA


CITY           SKY/WX    TMP DP  RH WIND       PRES   REMARKS
WILLISTON      CLEAR     53  48  83 CALM      30.16F
DICKINSON      CLEAR     50  48  93 SE8       30.18F FOG
MINOT          CLEAR     50  44  80 S5        30.17S
BISMARCK       CLEAR     51  48  89 NE3       30.20F

SOUTHERN SASKATCHEWAN


CITY           SKY/WX    TMP DP  RH WIND       PRES   REMARKS
REGINA         PTCLDY    50  43  76 S9        30.11F
ESTEVAN        PTCLDY    45  43  93 S6        30.15F
SWIFT CURRENT  PTCLDY    54  48  82 S8        30.08S



USA.gov is the U.S. government's official web portal to all federal, state and local government web resources and services.